Lid_Strength_Index
-1 0 -1 1 7 7 9 10 7 7 7 6 5 5 6 5 7 9 1 0 1 0 -0 -1 -2 -2 -2 -2 -2 -1 -2 -1 -1 -1 -2 -2 -1 -2 -2 -1 -2 -1 -1 -1 -2 -2 -2 -1 -1
0 1 0 3 8 10 10 8 9 7 5 4 5 5 5 7 4 3 2 0 1 -1 -1 -1 -2 -2 -2 -2 -2 -2 -2 -1 -1 -1 -2 -2 -2 -2 -2 -1 -2 -2 -1 -2 -2 -2 -2 -2 -0
1 1 4 5 8 10 10 7 7 7 5 7 5 4 5 6 3 2 0 0 1 -1 -1 -1 -2 -2 -2 -2 -2 -1 -1 -1 -2 -1 -1 -1 -1 -2 -1 -1 -1 -2 -2 -2 -2 -2 -2 -2 -2
1 2 3 8 10 8 8 6 7 8 7 6 5 6 4 2 2 1 -0 0 0 -1 -1 -2 -2 -2 -2 -1 -2 -1 -1 -2 -1 -1 -1 -1 -1 -2 -1 -1 -1 -1 -1 -1 -2 -2 -2 -2 -2
0 3 8 9 9 7 6 6 6 7 7 6 5 6 5 2 1 0 -0 0 1 -1 -1 -1 -2 -2 -2 -2 -2 -2 -2 -1 -1 -1 -1 -0 -0 -1 -0 -1 -1 -1 -1 -1 -1 -1 -2 -1 -2
3 4 9 10 9 7 6 6 7 6 7 6 5 5 5 1 1 0 -0 0 0 -0 -1 -1 -2 -2 -2 -2 -2 -2 -2 -1 -2 -1 -0 0 0 0 0 0 -0 -0 -0 -0 -1 -1 -0 -1 -0
5 6 9 8 9 8 7 5 6 6 7 6 5 6 4 3 1 0 -0 -0 -0 -1 -1 -1 -1 -1 -2 -2 -2 -2 -1 -2 -1 -0 1 1 1 1 1 1 1 0 0 1 1 1 1 1 1
3 4 9 8 9 9 6 5 5 6 6 5 4 5 5 2 1 0 -0 -0 -0 -1 -1 -1 -1 -1 -1 -1 -2 -2 -2 -1 0 0 1 1 1 1 1 1 1 1 2 1 2 3 2 2 2
3 6 9 9 9 7 5 6 5 5 5 5 4 4 3 1 1 1 1 1 0 0 -1 -1 -1 -1 -1 -1 -1 -2 -2 -1 -0 -0 1 1 1 1 1 1 2 2 2 3 3 3 3 2 2
5 7 9 6 6 6 5 5 5 6 6 6 5 3 2 2 2 2 2 2 1 1 0 -1 -1 -1 -1 -1 -1 -1 -1 -0 -1 -0 0 0 2 2 2 2 1 1 1 2 2 1 2 3 3
5 8 6 6 6 5 6 5 4 5 6 5 5 4 3 2 2 2 2 2 1 0 0 -0 -1 -1 -1 -1 -1 -1 -1 -1 -1 -0 0 0 1 2 2 2 2 1 2 2 2 2 2 3 3
8 7 7 6 7 7 7 6 6 6 7 6 4 3 3 3 3 2 2 2 1 1 0 -0 -1 -1 -1 -1 -1 -1 -1 -1 -1 -1 -0 1 2 2 2 2 1 2 2 2 2 2 2 3 3
8 8 8 7 8 8 7 7 7 7 7 6 5 4 3 3 2 2 1 1 1 1 0 -0 -1 -1 -1 -1 -1 -1 -1 -1 -1 -1 -1 0 2 2 1 1 1 2 2 2 2 2 3 3 4
8 8 8 8 8 8 8 8 7 7 6 6 6 5 3 3 3 2 2 2 1 1 0 -0 -0 -1 -1 -1 -1 -1 -1 -1 -1 -1 -1 -0 1 1 1 1 1 2 2 2 3 3 3 3 3
8 9 8 7 8 8 7 8 9 7 6 6 6 6 6 5 2 2 2 2 1 1 0 0 -0 -1 -1 -1 -1 -1 -1 -1 -1 -1 -1 -0 0 1 1 1 1 2 2 3 3 3 3 3 3
9 8 10 9 7 8 8 11 8 7 7 7 6 6 6 5 5 5 4 2 1 0 0 -0 -0 -0 -1 -1 -1 -1 -1 -1 -1 -1 -1 -1 -0 0 0 0 1 1 2 2 3 3 4 4 4
9 11 11 11 8 9 8 10 8 7 7 7 7 6 6 5 5 5 5 5 2 1 0 0 -0 -0 -0 -1 -1 -1 -1 -1 -1 -1 -1 -1 -1 -0 0 0 0 1 2 2 3 3 4 4 4
12 12 11 11 10 8 9 10 8 7 7 7 7 7 6 6 6 5 5 4 4 1 0 0 -0 -0 -0 -1 -1 -1 -1 -1 -1 -1 -1 -1 -1 -0 -0 0 1 1 2 3 3 3 3 4 4
10 11 12 11 10 10 10 10 9 8 7 8 7 8 7 7 6 5 5 4 4 2 1 0 0 -0 -0 0 1 0 1 -0 -0 -1 -1 -1 -1 -0 -0 0 1 1 2 3 3 3 4 4 3
11 11 11 11 10 9 10 10 9 8 9 9 8 8 8 8 7 6 5 5 4 4 2 1 0 0 -0 -0 -0 -0 -0 -0 -1 -1 -1 -1 -1 -1 0 0 1 1 2 2 3 3 4 4 3
11 11 12 11 10 9 10 11 10 9 8 8 9 8 8 8 8 7 6 5 4 4 4 2 2 1 -0 -0 -0 -0 -1 -1 -0 -0 -0 -1 -0 -0 0 1 1 1 2 2 2 3 3 4 3
12 11 11 11 11 12 10 12 11 10 10 10 9 9 9 8 8 7 7 6 5 3 2 3 3 2 1 0 1 1 1 2 0 -0 -1 -1 -0 -0 0 1 1 1 2 2 2 2 3 3 4
11 10 10 11 11 12 12 13 11 11 11 11 10 10 10 9 8 8 7 7 6 5 4 2 2 2 2 2 1 1 1 0 0 -0 0 -0 -1 -0 0 1 1 2 2 2 2 2 3 3 4
10 10 11 11 11 14 12 13 13 11 11 11 11 11 10 10 9 8 7 7 6 6 5 5 5 4 2 1 2 2 2 1 1 1 1 0 -0 -1 -0 0 1 1 1 2 2 2 2 3 3
10 11 13 14 14 14 12 13 13 11 11 11 12 11 10 10 10 9 9 8 7 6 6 6 6 6 5 5 4 3 2 1 1 1 1 1 1 0 -0 -0 0 1 1 1 1 2 2 2 2
11 11 13 16 15 13 13 14 12 10 10 11 11 10 10 10 10 9 9 8 8 8 6 6 6 6 6 5 6 5 4 4 3 3 2 2 2 1 0 0 0 0 0 1 1 2 2 2 2
11 11 11 13 13 14 12 12 11 10 11 11 11 11 11 10 10 9 9 8 8 8 7 7 6 6 6 6 5 6 6 5 5 5 4 3 3 3 2 1 1 1 0 1 1 2 2 2 2
10 9 12 11 15 16 14 13 11 12 11 11 11 11 10 10 10 9 9 9 8 8 7 7 6 6 6 5 5 5 6 6 6 5 6 5 4 4 4 3 2 1 1 1 1 1 1 2 2
10 11 11 11 12 14 15 13 10 9 10 10 10 11 10 10 10 9 9 8 8 8 8 7 7 6 6 6 6 5 6 6 6 6 6 6 6 5 5 5 4 3 2 1 1 1 1 2 2
10 11 11 12 13 12 13 12 10 9 8 9 10 10 10 10 9 9 8 8 8 8 8 8 8 7 7 6 6 6 6 6 6 6 6 6 6 6 6 5 5 5 5 3 2 2 2 2 2